This demonstration page uses our WeatherBlox Daily Observations layout. Learn more.

39.08367, -84.50855

Hourly Observations for January 8, 2020

Temp ( °F °C ) Dew Point ( °F °C ) Humidity (%) Winds ( mph kmh ) Pressure ( in mb ) Visibility ( mi km ) Precip ( " mm )
12:53 am 00:53 Cloudy 41 5 28 -2.2 60 60 WSW 12 19 30.11 1020 10 16.0934 0 0
1:53 am 01:53 Cloudy 40 4.4 28 -2.2 63 63 WSW 9 15 30.12 1020 10 16.0934 0 0
2:53 am 02:53 Mostly Cloudy 38 3.3 27 -2.8 65 65 SW 10 17 30.13 1020 10 16.0934 0 0
3:53 am 03:53 Clear 37 2.8 26 -3.3 65 65 WSW 8 13 30.14 1021 10 16.0934 0 0
4:53 am 04:53 Clear 38 3.3 25 -3.9 60 60 W 12 19 30.15 1021 10 16.0934 0 0
5:53 am 05:53 Clear 37 2.8 24 -4.4 59 59 W 16 26 30.17 1022 10 16.0934 0 0
6:53 am 06:53 Clear 36 2.2 23 -5 59 59 W 10 17 30.22 1024 10 16.0934 0 0
7:53 am 07:53 Clear 34 1.1 19 -7.2 54 54 WNW 10 17 30.26 1025 10 16.0934 0 0
8:53 am 08:53 Sunny 34 1.1 15 -9.4 46 46 W 13 20 30.31 1026 10 16.0934 0 0
9:53 am 09:53 Sunny 36 2.2 11 -11.7 35 35 W 13 20 30.35 1028 10 16.0934 0 0
10:53 am 10:53 Sunny 36 2.2 7 -13.9 30 30 WNW 12 19 30.37 1029 10 16.0934 0 0
11:53 am 11:53 Sunny 38 3.3 11 -11.7 33 33 W 13 20 30.39 1029 10 16.0934 0 0
12:53 pm 12:53 Sunny 39 3.9 10 -12.2 30 30 W 13 20 30.39 1029 10 16.0934 0 0
1:53 pm 13:53 Sunny 40 4.4 12 -11.1 32 32 W 12 19 30.4 1029 10 16.0934 0 0
2:53 pm 14:53 Sunny 40 4.4 11 -11.7 30 30 WNW 6 9 30.41 1030 10 16.0934 0 0
3:53 pm 15:53 Sunny 40 4.4 10 -12.2 29 29 VRB 6 9 30.42 1030 10 16.0934 0 0
4:53 pm 16:53 Sunny 39 3.9 12 -11.1 33 33 Calm 30.43 1031 10 16.0934 0 0
5:53 pm 17:53 Clear 33 0.6 16 -8.9 49 49 NE 3 6 30.46 1032 10 16.0934 0 0
6:53 pm 18:53 Clear 31 -0.6 17 -8.3 56 56 NE 5 7 30.48 1032 10 16.0934 0 0
7:53 pm 19:53 Clear 29 -1.7 19 -7.2 66 66 NE 3 6 30.49 1033 10 16.0934 0 0
8:53 pm 20:53 Clear 28 -2.2 19 -7.2 69 69 NE 3 6 30.5 1033 10 16.0934 0 0
9:53 pm 21:53 Clear 27 -2.8 17 -8.3 66 66 NNE 6 9 30.5 1033 10 16.0934 0 0
10:53 pm 22:53 Clear 25 -3.9 17 -8.3 72 72 Calm 30.5 1033 10 16.0934 0 0
11:53 pm 23:53 Clear 26 -3.3 17 -8.3 69 69 NNE 5 7 30.49 1033 10 16.0934 0 0

Powered by AerisWeather